TimeEDT,TemperatureF,Dew PointF,Humidity,Sea Level PressureIn,VisibilityMPH,Wind Direction,Wind SpeedMPH,Gust SpeedMPH,PrecipitationIn,Events,Conditions,WindDirDegrees,DateUTC
12:54 AM,59.0,53.1,81,30.13,10.0,Calm,Calm,-,N/A,,Clear,0,2012-10-24 04:54:00
1:54 AM,57.2,53.6,88,30.11,10.0,South,3.5,-,N/A,,Clear,170,2012-10-24 05:54:00
2:54 AM,55.0,51.1,86,30.12,10.0,South,5.8,-,N/A,,Clear,190,2012-10-24 06:54:00
3:54 AM,55.0,51.1,86,30.12,10.0,South,4.6,-,N/A,,Clear,180,2012-10-24 07:54:00
4:54 AM,55.0,51.1,86,30.12,10.0,SSW,3.5,-,N/A,,Clear,200,2012-10-24 08:54:00
5:54 AM,54.0,50.0,86,30.12,10.0,SSW,5.8,-,N/A,,Clear,200,2012-10-24 09:54:00
6:54 AM,53.1,50.0,89,30.14,10.0,South,5.8,-,N/A,,Scattered Clouds,190,2012-10-24 10:54:00
7:54 AM,54.0,51.1,90,30.15,10.0,SSW,6.9,-,N/A,,Mostly Cloudy,200,2012-10-24 11:54:00
8:54 AM,57.9,54.0,87,30.16,10.0,South,3.5,-,N/A,,Mostly Cloudy,180,2012-10-24 12:54:00
9:54 AM,63.0,53.1,70,30.17,10.0,West,5.8,-,N/A,,Mostly Cloudy,270,2012-10-24 13:54:00
10:54 AM,69.1,54.0,58,30.15,10.0,Variable,3.5,-,N/A,,Overcast,0,2012-10-24 14:54:00
11:54 AM,71.1,55.0,57,30.14,10.0,WSW,3.5,-,N/A,,Overcast,250,2012-10-24 15:54:00
12:54 PM,75.9,55.9,50,30.12,10.0,SW,3.5,-,N/A,,Scattered Clouds,220,2012-10-24 16:54:00
1:54 PM,81.0,55.0,41,30.10,10.0,Calm,Calm,-,N/A,,Partly Cloudy,0,2012-10-24 17:54:00
2:54 PM,82.9,53.1,36,30.09,10.0,East,4.6,-,N/A,,Partly Cloudy,90,2012-10-24 18:54:00
3:54 PM,82.0,54.0,38,30.08,10.0,SE,3.5,-,N/A,,Scattered Clouds,130,2012-10-24 19:54:00
4:54 PM,80.6,55.4,42,30.07,10.0,South,5.8,-,N/A,,Partly Cloudy,180,2012-10-24 20:54:00
5:54 PM,75.0,57.9,55,30.09,10.0,South,4.6,-,N/A,,Scattered Clouds,180,2012-10-24 21:54:00
6:54 PM,73.0,57.0,57,30.11,10.0,SSE,4.6,-,N/A,,Scattered Clouds,160,2012-10-24 22:54:00
7:54 PM,70.0,57.0,63,30.12,10.0,Calm,Calm,-,N/A,,Scattered Clouds,0,2012-10-24 23:54:00
8:54 PM,68.0,57.9,70,30.13,10.0,Calm,Calm,-,N/A,,Scattered Clouds,0,2012-10-25 00:54:00
9:54 PM,64.9,57.0,75,30.13,10.0,Calm,Calm,-,N/A,,Scattered Clouds,0,2012-10-25 01:54:00
10:54 PM,63.0,57.0,81,30.13,10.0,Calm,Calm,-,N/A,,Scattered Clouds,0,2012-10-25 02:54:00
11:54 PM,62.1,57.0,84,30.13,10.0,Calm,Calm,-,N/A,,Scattered Clouds,0,2012-10-25 03:54:00